Weather Roundup
Issued by NWS Corpus Christi, TX

Home | Current Version | Previous Version | Text Only | Print | Product List | Glossary On
Versions: 1 2 3 4 5 6 7 8 9 10 11 12 13 14 15 16 17 18 19 20 21 22 23 24 25 26 27 28 29 30 31 32 33 34 35 36 37 38 39 40 41 42 43 44 45 46 47 48 49 50
000
ASUS44 KCRP 281410
HRRCRP

SOUTH TEXAS REGIONAL WEATHER ROUNDUP
NATIONAL WEATHER SERVICE CORPUS CHRISTI TX
900 AM CDT SAT MAR 28 2015


TXZ229>244-281500-
...CORPUS CHRISTI AREA OBSERVATIONS...

CITY           SKY/WX    TMP DP  RH WIND       PRES   REMARKS
CORPUS CHRISTI SUNNY     55  51  86 SW9       30.19R
NAS CORPUS CHR SUNNY     59  55  87 SW9       30.18R
ROCKPORT         N/A     62  52  69 SW6       30.19R
KINGSVILLE NAS SUNNY     58  56  93 SW7       30.19R
ALICE          SUNNY     60  51  72 SW12      30.17S
FALFURRIAS     SUNNY     56  52  85 S6        30.19R
$$

...VICTORIA AREA OBSERVATIONS...

CITY           SKY/WX    TMP DP  RH WIND       PRES   REMARKS
VICTORIA       SUNNY     60  47  61 SW14      30.17S
BEEVILLE       FAIR      58  51  76 SW7       30.18R
PLEASANTON     SUNNY     58  44  60 SW7       30.17S
SAN ANTONIO    SUNNY     63  38  39 SW10      30.16R
$$

...LAREDO AREA OBSERVATIONS...

CITY           SKY/WX    TMP DP  RH WIND       PRES   REMARKS
LAREDO         SUNNY     59  44  57 SE10      30.18R
COTULLA        SUNNY     57  44  62 S5        30.17R
DEL RIO        SUNNY     58  39  49 E9        30.11R
MCALLEN        SUNNY     60  53  77 SE7       30.20R
HEBBRONVILLE   NOT AVBL
$$

...OTHER TEXAS OBSERVATIONS...

CITY           SKY/WX    TMP DP  RH WIND       PRES   REMARKS
BROWNSVILLE    SUNNY     61  58  90 S5        30.20R
HOUSTON        MOSUNNY   60  48  64 SE7       30.17S
COL. STATION   SUNNY     58  42  55 S8        30.15R
AUSTIN         MOSUNNY   52  48  86 CALM      30.13S
WACO           SUNNY     56  43  61 S13       30.11S
FORT WORTH     MOSUNNY   52  41  66 S13       30.10R
WICHITA FALLS  MOSUNNY   49  42  77 CALM      30.05R
LUBBOCK        MOSUNNY   50  36  58 SW7       30.05S
EL PASO        SUNNY     58  23  26 VRB3      30.16R
$$

...MARINE OBSERVATIONS...

STATION/POSITION TIME  SKY/WX   TEMP    WIND        PRES    VSBY  WAVE   SWELL
                                AIR SEA DIR/SP/G                  HT/PER HT/PER
                 (UTC)          (F)     (DEG/KT/KT) (MB)    (MI)  (FT/S) (FT/S)
PORT ARANSAS     1400            63 67  220/ 10/ 12 1022.7R
BUOY 90 E PORT A 1400            70 69  220/ 16/ 17 1022.3R         2/ 3
BUOY 45 SE BAFFI 1400            67 70  210/ 14/ 16 1021.8R         3/ 4
BUOY 200 E PT IS 1400            71 72  270/  4/  6 1023.2R         2/ 6   2/ 6
BUOY 15 E GALVES 1400            65 64  120/ 10/ 12 1021.7R         2/ 4
$$



USA.gov is the U.S. government's official web portal to all federal, state and local government web resources and services.